����,���ϕ���(m/s),���ϕ���,�ő�u�ԕ���(m/s),�ő啗��������,�C��(��),���x(%),10���Ԉړ��ώZ�J��(mm),1���Ԉړ��ώZ�J��(mm),���J��(mm),�݌v�J��(mm),����(���ώZ)(MJ/m2),����(���ώZ)(min),���n�C��(hPa),�C�ʋC��(hPa)
2020-10-26T00:00:00+09:00,0.4,�k��,1.2,�k�k��,9.5,89.4,0,0,0,0,16.88,546,1005.7,1019.9
2020-10-26T00:01:00+09:00,0.3,�k�k��,1.2,�쐼,9.3,89,0,0,0,0,0,0,1005.8,1020
2020-10-26T00:02:00+09:00,0.4,�k�k��,1.3,���쐼,9.1,88.7,0,0,0,0,0,0,1005.9,1020.1
2020-10-26T00:03:00+09:00,0.4,�k,1.6,�쐼,9.2,89.7,0,0,0,0,0,0,1006,1020.2
2020-10-26T00:04:00+09:00,0.6,�k�k��,2,���쐼,9,89.4,0,0,0,0,0,0,1006.1,1020.3
2020-10-26T00:05:00+09:00,0.6,���k��,2,���쐼,9.2,89.6,0,0,0,0,0,0,1006.1,1020.3
2020-10-26T00:06:00+09:00,0.6,��,2,���쐼,9.4,91.2,0,0,0,0,0,0,1006.1,1020.3
2020-10-26T00:07:00+09:00,0.6,��,2,���쐼,9.4,90.9,0,0,0,0,0,0,1006,1020.2
2020-10-26T00:08:00+09:00,0.6,��,2,���쐼,9.3,90.4,0,0,0,0,0,0,1006,1020.2
2020-10-26T00:09:00+09:00,0.6,��,2,���쐼,9.6,90.8,0,0,0,0,0,0,1006,1020.2
2020-10-26T00:10:00+09:00,0.7,��,2,���쐼,9.7,91.1,0,0,0,0,0,0,1006,1020.2
2020-10-26T00:11:00+09:00,0.6,��,2,���쐼,9.5,90.4,0,0,0,0,0,0,1006.1,1020.3
2020-10-26T00:12:00+09:00,0.5,��,2,���쐼,9.4,89.3,0,0,0,0,0,0,1006.1,1020.3
2020-10-26T00:13:00+09:00,0.5,���k��,2,���쐼,9.6,89.5,0,0,0,0,0,0,1006.1,1020.3
2020-10-26T00:14:00+09:00,0.4,���k��,1.4,�쐼,9.6,90.2,0,0,0,0,0,0,1006.1,1020.3
2020-10-26T00:15:00+09:00,0.3,���k��,1,�쐼,9.6,89.6,0,0,0,0,0,0,1006.1,1020.3
2020-10-26T00:16:00+09:00,0.3,���k��,1,�쐼,9.6,89,0,0,0,0,0,0,1006,1020.2
2020-10-26T00:17:00+09:00,0.3,��,1,�쐼,9.6,89,0,0,0,0,0,0,1006,1020.2
2020-10-26T00:18:00+09:00,0.3,��,1,�쐼,9.3,88.4,0,0,0,0,0,0,1006,1020.2
2020-10-26T00:19:00+09:00,0.3,���쐼,1,�쐼,9.1,87.9,0,0,0,0,0,0,1005.9,1020.1
2020-10-26T00:20:00+09:00,0.3,�쐼,1,�쐼,9.1,88.4,0,0,0,0,0,0,1006,1020.2
2020-10-26T00:21:00+09:00,0.3,�쐼,1,�쐼,9.4,89.7,0,0,0,0,0,0,1006,1020.2
2020-10-26T00:22:00+09:00,0.2,�É�,1,�쐼,9.4,90.1,0,0,0,0,0,0,1006,1020.2
2020-10-26T00:23:00+09:00,0.2,�É�,0.9,�k��,9.3,89.7,0,0,0,0,0,0,1006,1020.2
2020-10-26T00:24:00+09:00,0.1,�É�,0.8,��쐼,9.4,89.9,0,0,0,0,0,0,1006.1,1020.3
2020-10-26T00:25:00+09:00,0.1,�É�,0.8,��쐼,9.4,90.3,0,0,0,0,0,0,1006.1,1020.3
2020-10-26T00:26:00+09:00,0.2,�É�,1,�k�k��,9.4,90.1,0,0,0,0,0,0,1006.1,1020.3
2020-10-26T00:27:00+09:00,0.3,�k�k��,1.8,�k�k��,9.5,90.2,0,0,0,0,0,0,1006.1,1020.3
2020-10-26T00:28:00+09:00,0.4,�k�k��,1.8,�k�k��,9.5,90.1,0,0,0,0,0,0,1006.1,1020.3
2020-10-26T00:29:00+09:00,0.5,�k,1.8,�k�k��,9.5,89.8,0,0,0,0,0,0,1006,1020.2
2020-10-26T00:30:00+09:00,0.6,�k�k��,1.9,�k�k��,9.6,89.9,0,0,0,0,0,0,1006,1020.2
2020-10-26T00:31:00+09:00,0.7,�k�k��,1.9,�k�k��,9.5,89.9,0,0,0,0,0,0,1005.9,1020.1
2020-10-26T00:32:00+09:00,0.9,�k�k��,1.9,�k�k��,9.4,89.2,0,0,0,0,0,0,1005.8,1020
2020-10-26T00:33:00+09:00,1,�k�k��,2,�k�k��,9.3,89,0,0,0,0,0,0,1005.7,1019.9
2020-10-26T00:34:00+09:00,1.2,�k�k��,2,�k�k��,9.3,89.2,0,0,0,0,0,0,1005.7,1019.9
2020-10-26T00:35:00+09:00,1.3,�k�k��,2.4,�k�k��,9.4,89.8,0,0,0,0,0,0,1005.7,1019.9
2020-10-26T00:36:00+09:00,1.5,�k�k��,2.4,�k�k��,9.3,89.7,0,0,0,0,0,0,1005.8,1020
2020-10-26T00:37:00+09:00,1.5,�k�k��,2.4,�k�k��,9.4,89.8,0,0,0,0,0,0,1005.8,1020
2020-10-26T00:38:00+09:00,1.6,�k�k��,2.6,�k�k��,9.5,90.4,0,0,0,0,0,0,1005.8,1020
2020-10-26T00:39:00+09:00,1.7,�k�k��,2.6,�k�k��,9.5,90.1,0,0,0,0,0,0,1005.8,1020
2020-10-26T00:40:00+09:00,1.7,�k�k��,2.7,�k�k��,9.5,89.9,0,0,0,0,0,0,1005.8,1020
2020-10-26T00:41:00+09:00,1.8,�k�k��,2.9,�k�k��,9.3,89.5,0,0,0,0,0,0,1005.8,1020
2020-10-26T00:42:00+09:00,1.9,�k�k��,2.9,�k�k��,9.3,89.2,0,0,0,0,0,0,1005.8,1020
2020-10-26T00:43:00+09:00,2,�k�k��,2.9,�k�k��,9.3,89.3,0,0,0,0,0,0,1005.8,1020
2020-10-26T00:44:00+09:00,2,�k�k��,2.9,�k�k��,9.3,89.8,0,0,0,0,0,0,1005.9,1020.1
2020-10-26T00:45:00+09:00,2,�k�k��,2.9,�k�k��,9.3,89.6,0,0,0,0,0,0,1005.9,1020.1
2020-10-26T00:46:00+09:00,1.9,�k�k��,2.9,�k�k��,9.3,89.8,0,0,0,0,0,0,1005.9,1020.1
2020-10-26T00:47:00+09:00,1.9,�k�k��,2.9,�k�k��,9.3,90.1,0,0,0,0,0,0,1005.9,1020.1
2020-10-26T00:48:00+09:00,1.7,�k�k��,2.9,�k�k��,9.5,90.3,0,0,0,0,0,0,1006,1020.2
2020-10-26T00:49:00+09:00,1.6,�k�k��,2.9,�k�k��,9.2,90.2,0,0,0,0,0,0,1006,1020.2
2020-10-26T00:50:00+09:00,1.4,�k�k��,2.9,�k�k��,9.1,89.5,0,0,0,0,0,0,1006,1020.2
2020-10-26T00:51:00+09:00,1.3,�k�k��,2.6,�k�k��,9.1,89.6,0,0,0,0,0,0,1005.9,1020.1
2020-10-26T00:52:00+09:00,1.1,�k�k��,2.6,�k�k��,9.2,90.4,0,0,0,0,0,0,1005.9,1020.1
2020-10-26T00:53:00+09:00,1,�k�k��,2.5,�k�k��,9.2,90.6,0,0,0,0,0,0,1005.8,1020
2020-10-26T00:54:00+09:00,0.9,�k�k��,2.1,�k�k��,9.2,90.7,0,0,0,0,0,0,1005.8,1020
2020-10-26T00:55:00+09:00,0.8,�k�k��,2,�k,9.1,90.5,0,0,0,0,0,0,1005.9,1020.1
2020-10-26T00:56:00+09:00,0.8,�k�k��,1.4,�k�k��,9.1,90.5,0,0,0,0,0,0,1005.9,1020.1
2020-10-26T00:57:00+09:00,0.7,�k�k��,1.3,�k��,9.2,91,0,0,0,0,0,0,1005.9,1020.1
2020-10-26T00:58:00+09:00,0.8,�k�k��,1.3,�k��,9.3,91.2,0,0,0,0,0,0,1005.8,1020
2020-10-26T00:59:00+09:00,0.9,�k��,1.3,�k��,9.2,91.3,0,0,0,0,0,0,1005.8,1020
2020-10-26T01:00:00+09:00,0.9,�k��,1.3,�k��,9.3,90.9,0,0,0,0,0,0,1005.8,1020
2020-10-26T01:01:00+09:00,0.9,�k��,1.3,�k��,9.3,91.2,0,0,0,0,0,0,1005.7,1019.9
2020-10-26T01:02:00+09:00,0.8,�k��,1.3,�k��,9.3,91.1,0,0,0,0,0,0,1005.7,1019.9
2020-10-26T01:03:00+09:00,0.8,�k�k��,1.3,�k��,9.4,91,0,0,0,0,0,0,1005.7,1019.9
2020-10-26T01:04:00+09:00,0.7,�k�k��,1.2,�k�k��,9.3,90.7,0,0,0,0,0,0,1005.8,1020
2020-10-26T01:05:00+09:00,0.6,�k�k��,1.2,�k�k��,9.3,90.5,0,0,0,0,0,0,1005.8,1020
2020-10-26T01:06:00+09:00,0.5,�k�k��,1.2,�k�k��,9.2,90.4,0,0,0,0,0,0,1005.9,1020.1
2020-10-26T01:07:00+09:00,0.5,�k�k��,1.2,�k�k��,9.2,90.2,0,0,0,0,0,0,1005.9,1020.1
2020-10-26T01:08:00+09:00,0.4,�k�k��,1.2,�k�k��,9.1,90.2,0,0,0,0,0,0,1005.8,1020
2020-10-26T01:09:00+09:00,0.3,�k�k��,1.1,�k�k��,9,89.9,0,0,0,0,0,0,1005.8,1020
2020-10-26T01:10:00+09:00,0.2,�É�,1,�k��,9,90.2,0,0,0,0,0,0,1005.8,1020
2020-10-26T01:11:00+09:00,0.1,�É�,0.5,�k,9.1,90.7,0,0,0,0,0,0,1005.9,1020.1
2020-10-26T01:12:00+09:00,0.1,�É�,0.5,�k,9.2,91.1,0,0,0,0,0,0,1005.9,1020.1
2020-10-26T01:13:00+09:00,0.1,�É�,0.5,�k,9.3,91.5,0,0,0,0,0,0,1005.9,1020.1
2020-10-26T01:14:00+09:00,0.1,�É�,0.8,��쐼,9,91.1,0,0,0,0,0,0,1006,1020.2
2020-10-26T01:15:00+09:00,0.2,�É�,0.9,��쐼,8.8,90.1,0,0,0,0,0,0,1006,1020.2
2020-10-26T01:16:00+09:00,0.2,�É�,0.9,��쐼,9.1,90.6,0,0,0,0,0,0,1005.9,1020.1
2020-10-26T01:17:00+09:00,0.2,�É�,0.9,��쐼,9.1,91.4,0,0,0,0,0,0,1005.9,1020.1
2020-10-26T01:18:00+09:00,0.2,�É�,1.1,�k��,9,91.1,0,0,0,0,0,0,1005.9,1020.1
2020-10-26T01:19:00+09:00,0.4,�k��,1.5,�k��,9.1,91.3,0,0,0,0,0,0,1005.8,1020
2020-10-26T01:20:00+09:00,0.5,���k��,1.6,�k��,9.2,91.7,0,0,0,0,0,0,1005.8,1020
2020-10-26T01:21:00+09:00,0.6,���k��,1.6,�k��,9.3,91.7,0,0,0,0,0,0,1005.7,1019.9
2020-10-26T01:22:00+09:00,0.7,���k��,1.6,�k��,9.3,91.5,0,0,0,0,0,0,1005.7,1019.9
2020-10-26T01:23:00+09:00,0.9,���k��,1.6,�k��,9.3,91.3,0,0,0,0,0,0,1005.7,1019.9
2020-10-26T01:24:00+09:00,0.9,�k��,1.6,�k��,9.3,91.1,0,0,0,0,0,0,1005.6,1019.8
2020-10-26T01:25:00+09:00,0.9,�k��,1.6,�k��,9.3,90.8,0,0,0,0,0,0,1005.6,1019.8
2020-10-26T01:26:00+09:00,1,�k��,1.6,�k��,9.3,90.4,0,0,0,0,0,0,1005.6,1019.8
2020-10-26T01:27:00+09:00,1,�k��,1.6,�k��,9.2,90.1,0,0,0,0,0,0,1005.6,1019.8
2020-10-26T01:28:00+09:00,1,�k��,1.6,�k��,9.2,89.9,0,0,0,0,0,0,1005.6,1019.8
2020-10-26T01:29:00+09:00,0.9,�k��,1.6,�k��,9.2,90.1,0,0,0,0,0,0,1005.7,1019.9
2020-10-26T01:30:00+09:00,0.8,�k�k��,1.6,�k��,9.2,90,0,0,0,0,0,0,1005.7,1019.9
2020-10-26T01:31:00+09:00,0.7,�k�k��,1.5,�k��,9.2,90.1,0,0,0,0,0,0,1005.7,1019.9
2020-10-26T01:32:00+09:00,0.6,�k�k��,1.4,�k��,9.2,90.3,0,0,0,0,0,0,1005.7,1019.9
2020-10-26T01:33:00+09:00,0.4,�k�k��,1.3,�k��,9.1,90.2,0,0,0,0,0,0,1005.8,1020
2020-10-26T01:34:00+09:00,0.4,�k,1.1,�k��,9.3,90.5,0,0,0,0,0,0,1005.7,1019.9
2020-10-26T01:35:00+09:00,0.3,�k,1,�k��,9.2,90.8,0,0,0,0,0,0,1005.8,1020
2020-10-26T01:36:00+09:00,0.3,�k,1,�k��,9.3,90.7,0,0,0,0,0,0,1005.7,1019.9
2020-10-26T01:37:00+09:00,0.3,�k,0.9,�k�k��,9.1,90.4,0,0,0,0,0,0,1005.7,1019.9
2020-10-26T01:38:00+09:00,0.3,�k�k��,0.9,�k�k��,9.2,90.3,0,0,0,0,0,0,1005.7,1019.9
2020-10-26T01:39:00+09:00,0.2,�É�,0.9,�k�k��,9.2,90.6,0,0,0,0,0,0,1005.7,1019.9
2020-10-26T01:40:00+09:00,0.2,�É�,0.9,�k�k��,9.1,90.4,0,0,0,0,0,0,1005.7,1019.9
2020-10-26T01:41:00+09:00,0.2,�É�,0.5,�k��,9.1,90.6,0,0,0,0,0,0,1005.7,1019.9
2020-10-26T01:42:00+09:00,0.2,�É�,0.5,�k��,9,90.3,0,0,0,0,0,0,1005.8,1020
2020-10-26T01:43:00+09:00,0.2,�É�,0.5,�k��,9.2,90.6,0,0,0,0,0,0,1005.8,1020
2020-10-26T01:44:00+09:00,0.2,�É�,0.5,�k��,9,90.5,0,0,0,0,0,0,1005.8,1020
2020-10-26T01:45:00+09:00,0.2,�É�,0.5,�k��,9.1,90.9,0,0,0,0,0,0,1005.8,1020
2020-10-26T01:46:00+09:00,0.2,�É�,0.6,���k��,9.2,91.2,0,0,0,0,0,0,1005.8,1020
2020-10-26T01:47:00+09:00,0.2,�É�,1,���k��,9,90.8,0,0,0,0,0,0,1005.8,1020
2020-10-26T01:48:00+09:00,0.3,�k�k��,1,���k��,9.2,90.9,0,0,0,0,0,0,1005.8,1020
2020-10-26T01:49:00+09:00,0.4,�k��,1,���k��,9.1,91,0,0,0,0,0,0,1005.8,1020
2020-10-26T01:50:00+09:00,0.4,�k��,1,���k��,9.2,91.2,0,0,0,0,0,0,1005.7,1019.9
2020-10-26T01:51:00+09:00,0.5,�k��,1,���k��,9.2,91,0,0,0,0,0,0,1005.7,1019.9
2020-10-26T01:52:00+09:00,0.5,�k��,1,���k��,9.2,90.9,0,0,0,0,0,0,1005.8,1020
2020-10-26T01:53:00+09:00,0.6,���k��,1,���k��,9.2,91,0,0,0,0,0,0,1005.8,1020
2020-10-26T01:54:00+09:00,0.6,���k��,1,���k��,9.2,91,0,0,0,0,0,0,1005.8,1020
2020-10-26T01:55:00+09:00,0.7,���k��,1,���k��,9.1,91,0,0,0,0,0,0,1005.8,1020
2020-10-26T01:56:00+09:00,0.7,���k��,1.2,���k��,9,90.5,0,0,0,0,0,0,1005.8,1020
2020-10-26T01:57:00+09:00,0.7,���k��,1.2,���k��,8.9,90.4,0,0,0,0,0,0,1005.7,1019.9
2020-10-26T01:58:00+09:00,0.7,���k��,1.2,���k��,8.9,90.5,0,0,0,0,0,0,1005.7,1019.9
2020-10-26T01:59:00+09:00,0.7,���k��,1.2,���k��,9,91.1,0,0,0,0,0,0,1005.7,1019.9
2020-10-26T02:00:00+09:00,0.7,���k��,1.2,���k��,8.9,91.1,0,0,0,0,0,0,1005.6,1019.8
2020-10-26T02:01:00+09:00,0.7,���k��,1.2,���k��,9,91.2,0,0,0,0,0,0,1005.5,1019.7
2020-10-26T02:02:00+09:00,0.7,�k��,1.2,���k��,9.1,91.5,0,0,0,0,0,0,1005.5,1019.7
2020-10-26T02:03:00+09:00,0.7,�k��,1.5,�k�k��,9,91.6,0,0,0,0,0,0,1005.5,1019.7
2020-10-26T02:04:00+09:00,0.7,�k��,1.5,�k�k��,9.1,91.6,0,0,0,0,0,0,1005.5,1019.7
2020-10-26T02:05:00+09:00,0.7,�k��,1.5,�k�k��,8.9,91.2,0,0,0,0,0,0,1005.6,1019.8
2020-10-26T02:06:00+09:00,0.7,�k��,1.5,�k�k��,9.1,91.2,0,0,0,0,0,0,1005.6,1019.8
2020-10-26T02:07:00+09:00,0.7,�k��,1.5,�k�k��,9,91.5,0,0,0,0,0,0,1005.6,1019.8
2020-10-26T02:08:00+09:00,0.7,�k��,1.5,�k�k��,8.9,91.1,0,0,0,0,0,0,1005.5,1019.7
2020-10-26T02:09:00+09:00,0.6,�k��,1.5,�k�k��,8.8,91,0,0,0,0,0,0,1005.5,1019.7
2020-10-26T02:10:00+09:00,0.6,�k��,1.5,�k�k��,8.9,91.4,0,0,0,0,0,0,1005.5,1019.7
2020-10-26T02:11:00+09:00,0.6,�k��,1.5,�k�k��,8.8,91.2,0,0,0,0,0,0,1005.5,1019.7
2020-10-26T02:12:00+09:00,0.6,���k��,1.5,�k�k��,8.8,91.4,0,0,0,0,0,0,1005.5,1019.7
2020-10-26T02:13:00+09:00,0.6,���k��,1.3,�k��,8.7,91.4,0,0,0,0,0,0,1005.5,1019.7
2020-10-26T02:14:00+09:00,0.6,���k��,1.3,�k��,8.9,92,0,0,0,0,0,0,1005.4,1019.6
2020-10-26T02:15:00+09:00,0.5,���k��,1.3,�k��,8.7,91.9,0,0,0,0,0,0,1005.4,1019.6
2020-10-26T02:16:00+09:00,0.5,���k��,1.1,���k��,8.8,92.1,0,0,0,0,0,0,1005.4,1019.6
2020-10-26T02:17:00+09:00,0.4,���k��,0.8,�k��,8.7,92,0,0,0,0,0,0,1005.4,1019.6
2020-10-26T02:18:00+09:00,0.4,���k��,0.8,�k��,8.7,91.9,0,0,0,0,0,0,1005.4,1019.6
2020-10-26T02:19:00+09:00,0.4,�k��,0.8,�k��,8.8,92.3,0,0,0,0,0,0,1005.4,1019.6
2020-10-26T02:20:00+09:00,0.4,�k��,0.8,�k��,8.8,92.4,0,0,0,0,0,0,1005.4,1019.6
2020-10-26T02:21:00+09:00,0.3,�k��,0.8,�k��,8.8,92.6,0,0,0,0,0,0,1005.5,1019.7
2020-10-26T02:22:00+09:00,0.3,�k�k��,0.8,�k��,8.8,92.4,0,0,0,0,0,0,1005.5,1019.7
2020-10-26T02:23:00+09:00,0.3,�k�k��,0.8,�k��,8.7,92.4,0,0,0,0,0,0,1005.5,1019.7
2020-10-26T02:24:00+09:00,0.2,�É�,0.6,�k��,8.7,92.2,0,0,0,0,0,0,1005.5,1019.7
2020-10-26T02:25:00+09:00,0.2,�É�,0.6,�k��,8.6,92.5,0,0,0,0,0,0,1005.5,1019.7
2020-10-26T02:26:00+09:00,0.1,�É�,0.6,�k��,8.7,92.5,0,0,0,0,0,0,1005.5,1019.7
2020-10-26T02:27:00+09:00,0.1,�É�,0.5,��쐼,8.7,92.7,0,0,0,0,0,0,1005.5,1019.7
2020-10-26T02:28:00+09:00,0.1,�É�,0.7,�쐼,8.7,93,0,0,0,0,0,0,1005.5,1019.7
2020-10-26T02:29:00+09:00,0.1,�É�,0.7,�쐼,8.5,92.4,0,0,0,0,0,0,1005.5,1019.7
2020-10-26T02:30:00+09:00,0.2,�É�,0.8,���쐼,8.6,92.5,0,0,0,0,0,0,1005.5,1019.7
2020-10-26T02:31:00+09:00,0.2,�É�,0.8,���쐼,8.8,93.2,0,0,0,0,0,0,1005.5,1019.7
2020-10-26T02:32:00+09:00,0.2,�É�,0.8,���쐼,8.9,93.9,0,0,0,0,0,0,1005.6,1019.8
2020-10-26T02:33:00+09:00,0.2,�É�,0.8,���쐼,8.7,93.1,0,0,0,0,0,0,1005.5,1019.7
2020-10-26T02:34:00+09:00,0.2,�É�,0.8,���쐼,8.8,93.1,0,0,0,0,0,0,1005.6,1019.8
2020-10-26T02:35:00+09:00,0.2,�É�,0.8,���쐼,8.8,93,0,0,0,0,0,0,1005.5,1019.7
2020-10-26T02:36:00+09:00,0.3,���쐼,0.8,���쐼,8.7,93,0,0,0,0,0,0,1005.5,1019.7
2020-10-26T02:37:00+09:00,0.3,���쐼,1,���쐼,8.7,92.9,0,0,0,0,0,0,1005.5,1019.7
2020-10-26T02:38:00+09:00,0.3,���쐼,1,���쐼,8.7,92.9,0,0,0,0,0,0,1005.5,1019.7
2020-10-26T02:39:00+09:00,0.3,��,1,���쐼,8.7,92.6,0,0,0,0,0,0,1005.6,1019.8
2020-10-26T02:40:00+09:00,0.3,��,1,���쐼,8.7,93,0,0,0,0,0,0,1005.6,1019.8
2020-10-26T02:41:00+09:00,0.3,��,1,���쐼,8.9,93.2,0,0,0,0,0,0,1005.6,1019.8
2020-10-26T02:42:00+09:00,0.4,��,1,���쐼,8.9,93.3,0,0,0,0,0,0,1005.6,1019.8
2020-10-26T02:43:00+09:00,0.4,��,1,���쐼,8.9,93.1,0,0,0,0,0,0,1005.6,1019.8
2020-10-26T02:44:00+09:00,0.4,��,1,���쐼,8.8,92.4,0,0,0,0,0,0,1005.6,1019.8
2020-10-26T02:45:00+09:00,0.4,���k��,1,���쐼,9,92.7,0,0,0,0,0,0,1005.6,1019.8
2020-10-26T02:46:00+09:00,0.3,���k��,1,���쐼,8.9,92.7,0,0,0,0,0,0,1005.5,1019.7
2020-10-26T02:47:00+09:00,0.2,�É�,0.7,���쐼,8.9,92.6,0,0,0,0,0,0,1005.5,1019.7
2020-10-26T02:48:00+09:00,0.2,�É�,0.6,��,8.8,92.2,0,0,0,0,0,0,1005.5,1019.7
2020-10-26T02:49:00+09:00,0.2,�É�,0.6,��,8.8,92,0,0,0,0,0,0,1005.5,1019.7
2020-10-26T02:50:00+09:00,0.2,�É�,0.6,��,8.8,92.1,0,0,0,0,0,0,1005.5,1019.7
2020-10-26T02:51:00+09:00,0.2,�É�,0.6,��,8.9,92.1,0,0,0,0,0,0,1005.5,1019.7
2020-10-26T02:52:00+09:00,0.1,�É�,0.6,��,8.9,92.6,0,0,0,0,0,0,1005.5,1019.7
2020-10-26T02:53:00+09:00,0.1,�É�,0.7,��쐼,8.9,92.3,0,0,0,0,0,0,1005.4,1019.6
2020-10-26T02:54:00+09:00,0.1,�É�,0.7,��쐼,8.8,92,0,0,0,0,0,0,1005.4,1019.6
2020-10-26T02:55:00+09:00,0.1,�É�,0.7,��쐼,8.7,91.8,0,0,0,0,0,0,1005.4,1019.6
2020-10-26T02:56:00+09:00,0.2,�É�,0.7,��쐼,8.8,91.8,0,0,0,0,0,0,1005.4,1019.6
2020-10-26T02:57:00+09:00,0.2,�É�,0.7,��쐼,8.6,91.8,0,0,0,0,0,0,1005.4,1019.6
2020-10-26T02:58:00+09:00,0.2,�É�,0.7,��쐼,8.9,92.1,0,0,0,0,0,0,1005.4,1019.6
2020-10-26T02:59:00+09:00,0.2,�É�,0.7,��쐼,8.9,92.5,0,0,0,0,0,0,1005.4,1019.6
2020-10-26T03:00:00+09:00,0.3,�쐼,1,�쐼,8.7,92.1,0,0,0,0,0,0,1005.4,1019.6
2020-10-26T03:01:00+09:00,0.3,��쐼,1,�쐼,8.5,91.4,0,0,0,0,0,0,1005.4,1019.6
2020-10-26T03:02:00+09:00,0.3,��쐼,1,�쐼,8.6,91.9,0,0,0,0,0,0,1005.4,1019.6
2020-10-26T03:03:00+09:00,0.3,��쐼,1,�쐼,8.7,92.5,0,0,0,0,0,0,1005.3,1019.5
2020-10-26T03:04:00+09:00,0.3,�쐼,1,�쐼,8.9,92.6,0,0,0,0,0,0,1005.3,1019.5
2020-10-26T03:05:00+09:00,0.3,�쐼,1,�쐼,8.8,92.5,0,0,0,0,0,0,1005.3,1019.5
2020-10-26T03:06:00+09:00,0.3,�쐼,1,�쐼,8.8,92.5,0,0,0,0,0,0,1005.3,1019.5
2020-10-26T03:07:00+09:00,0.3,�쐼,1,�쐼,9,92.7,0,0,0,0,0,0,1005.2,1019.4
2020-10-26T03:08:00+09:00,0.4,�쐼,1,�쐼,9,92.7,0,0,0,0,0,0,1005.2,1019.4
2020-10-26T03:09:00+09:00,0.4,�쐼,1.1,�쐼,9.1,92.4,0,0,0,0,0,0,1005.2,1019.4
2020-10-26T03:10:00+09:00,0.5,�쐼,1.2,�쐼,8.5,90.7,0,0,0,0,0,0,1005.2,1019.4
2020-10-26T03:11:00+09:00,0.5,�쐼,1.2,�쐼,8.4,89.9,0,0,0,0,0,0,1005.2,1019.4
2020-10-26T03:12:00+09:00,0.5,�쐼,1.2,�쐼,8.5,91,0,0,0,0,0,0,1005.2,1019.4
2020-10-26T03:13:00+09:00,0.5,�쐼,1.2,�쐼,8.4,91.2,0,0,0,0,0,0,1005.3,1019.5
2020-10-26T03:14:00+09:00,0.5,�쐼,1.2,�쐼,8.5,91.7,0,0,0,0,0,0,1005.3,1019.5
2020-10-26T03:15:00+09:00,0.5,�쐼,1.2,�쐼,8.6,92.2,0,0,0,0,0,0,1005.3,1019.5
2020-10-26T03:16:00+09:00,0.6,���쐼,1.2,�쐼,8.6,92.5,0,0,0,0,0,0,1005.3,1019.5
2020-10-26T03:17:00+09:00,0.6,��,1.4,���k��,8.6,92.4,0,0,0,0,0,0,1005.4,1019.6
2020-10-26T03:18:00+09:00,0.7,��,1.7,��,8.5,92.2,0,0,0,0,0,0,1005.4,1019.6
2020-10-26T03:19:00+09:00,0.7,���k��,1.7,��,8.2,91.3,0,0,0,0,0,0,1005.4,1019.6
2020-10-26T03:20:00+09:00,0.7,���k��,1.7,��,8.4,91.7,0,0,0,0,0,0,1005.4,1019.6
2020-10-26T03:21:00+09:00,0.7,���k��,1.7,��,8.2,92,0,0,0,0,0,0,1005.3,1019.5
2020-10-26T03:22:00+09:00,0.7,���k��,1.7,��,8.2,91.7,0,0,0,0,0,0,1005.3,1019.5
2020-10-26T03:23:00+09:00,0.8,��,1.7,��,8.1,92.2,0,0,0,0,0,0,1005.3,1019.5
2020-10-26T03:24:00+09:00,0.8,��,1.7,��,8.1,92.5,0,0,0,0,0,0,1005.2,1019.4
2020-10-26T03:25:00+09:00,0.9,���쐼,1.7,��,8.4,93.4,0,0,0,0,0,0,1005.2,1019.4
2020-10-26T03:26:00+09:00,0.9,�쐼,1.7,��,8.3,93.6,0,0,0,0,0,0,1005.3,1019.5
2020-10-26T03:27:00+09:00,0.9,�쐼,1.7,��,8.2,93.1,0,0,0,0,0,0,1005.3,1019.5
2020-10-26T03:28:00+09:00,0.8,�쐼,1.6,��쐼,8.3,93.3,0,0,0,0,0,0,1005.3,1019.5
2020-10-26T03:29:00+09:00,0.7,�쐼,1.6,��쐼,8.3,93.6,0,0,0,0,0,0,1005.3,1019.5
2020-10-26T03:30:00+09:00,0.6,�쐼,1.6,��쐼,8.4,94.1,0,0,0,0,0,0,1005.3,1019.5
2020-10-26T03:31:00+09:00,0.6,��쐼,1.6,��쐼,8.3,93.7,0,0,0,0,0,0,1005.3,1019.5
2020-10-26T03:32:00+09:00,0.5,��쐼,1.6,��쐼,8.5,94.2,0,0,0,0,0,0,1005.3,1019.5
2020-10-26T03:33:00+09:00,0.5,��,1.6,��쐼,8.4,94,0,0,0,0,0,0,1005.4,1019.6
2020-10-26T03:34:00+09:00,0.4,��쓌,1.6,��쐼,8.6,94,0,0,0,0,0,0,1005.4,1019.6
2020-10-26T03:35:00+09:00,0.3,��쓌,1.6,��쐼,8.3,93.4,0,0,0,0,0,0,1005.4,1019.6
2020-10-26T03:36:00+09:00,0.2,�É�,1.4,��쐼,8.2,92.7,0,0,0,0,0,0,1005.4,1019.6
2020-10-26T03:37:00+09:00,0.1,�É�,0.7,�쐼,8.2,92.7,0,0,0,0,0,0,1005.4,1019.6
2020-10-26T03:38:00+09:00,0.1,�É�,0.7,�쐼,8.3,93.1,0,0,0,0,0,0,1005.4,1019.6
2020-10-26T03:39:00+09:00,0.1,�É�,0.7,�쐼,8.4,93.7,0,0,0,0,0,0,1005.4,1019.6
2020-10-26T03:40:00+09:00,0.1,�É�,0.7,�쐼,8.3,93.3,0,0,0,0,0,0,1005.4,1019.6
2020-10-26T03:41:00+09:00,0.1,�É�,0.7,�쐼,8.1,92.8,0,0,0,0,0,0,1005.4,1019.6
2020-10-26T03:42:00+09:00,0.1,�É�,0.7,�쐼,8.2,92.8,0,0,0,0,0,0,1005.4,1019.6
2020-10-26T03:43:00+09:00,0.1,�É�,0.7,�쐼,8.3,93.5,0,0,0,0,0,0,1005.4,1019.6
2020-10-26T03:44:00+09:00,0.2,�É�,0.8,��,8.3,93.7,0,0,0,0,0,0,1005.4,1019.6
2020-10-26T03:45:00+09:00,0.2,�É�,1.1,��,8.2,93.2,0,0,0,0,0,0,1005.4,1019.6
2020-10-26T03:46:00+09:00,0.2,�É�,1.1,��,8.2,93.1,0,0,0,0,0,0,1005.3,1019.5
2020-10-26T03:47:00+09:00,0.3,���k��,1.1,��,8.1,92.9,0,0,0,0,0,0,1005.3,1019.5
2020-10-26T03:48:00+09:00,0.3,���k��,1.1,��,7.9,92.8,0,0,0,0,0,0,1005.3,1019.5
2020-10-26T03:49:00+09:00,0.4,��,1.1,��,7.7,91.8,0,0,0,0,0,0,1005.3,1019.6
2020-10-26T03:50:00+09:00,0.5,��,1.2,���쐼,7.9,92.5,0,0,0,0,0,0,1005.3,1019.5
2020-10-26T03:51:00+09:00,0.6,��,1.7,�쐼,8,93.5,0,0,0,0,0,0,1005.3,1019.5
2020-10-26T03:52:00+09:00,0.6,���쐼,1.7,�쐼,8,93.7,0,0,0,0,0,0,1005.2,1019.4
2020-10-26T03:53:00+09:00,0.7,���쐼,1.7,�쐼,8.1,94.2,0,0,0,0,0,0,1005.3,1019.5
2020-10-26T03:54:00+09:00,0.8,���쐼,1.8,���쐼,8.1,94.2,0,0,0,0,0,0,1005.3,1019.5
2020-10-26T03:55:00+09:00,0.8,���쐼,1.8,���쐼,8.2,94.6,0,0,0,0,0,0,1005.3,1019.5
2020-10-26T03:56:00+09:00,0.9,���쐼,1.8,���쐼,8.3,94.9,0,0,0,0,0,0,1005.3,1019.5
2020-10-26T03:57:00+09:00,1,���쐼,1.8,���쐼,8.2,94.9,0,0,0,0,0,0,1005.4,1019.6
2020-10-26T03:58:00+09:00,1,���쐼,1.8,���쐼,8.3,94.7,0,0,0,0,0,0,1005.4,1019.6
2020-10-26T03:59:00+09:00,1,���쐼,1.8,���쐼,8.3,95,0,0,0,0,0,0,1005.3,1019.5
2020-10-26T04:00:00+09:00,1,��,1.8,���쐼,8.2,94.5,0,0,0,0,0,0,1005.3,1019.5
2020-10-26T04:01:00+09:00,0.9,��,1.8,���쐼,8,94.2,0,0,0,0,0,0,1005.4,1019.6
2020-10-26T04:02:00+09:00,0.9,��,1.8,���쐼,8,93.8,0,0,0,0,0,0,1005.4,1019.6
2020-10-26T04:03:00+09:00,0.9,��,1.8,���쐼,8,93.9,0,0,0,0,0,0,1005.4,1019.6
2020-10-26T04:04:00+09:00,0.8,��,1.7,��,8,94.3,0,0,0,0,0,0,1005.4,1019.6
2020-10-26T04:05:00+09:00,0.7,���k��,1.7,��,7.9,94,0,0,0,0,0,0,1005.4,1019.6
2020-10-26T04:06:00+09:00,0.6,���k��,1.3,��,7.8,93.7,0,0,0,0,0,0,1005.4,1019.7
2020-10-26T04:07:00+09:00,0.5,���k��,1.1,�k��,7.9,93.7,0,0,0,0,0,0,1005.4,1019.6
2020-10-26T04:08:00+09:00,0.4,�k��,1,��,7.9,94.4,0,0,0,0,0,0,1005.4,1019.6
2020-10-26T04:09:00+09:00,0.4,�k��,1,��,8.1,94.5,0,0,0,0,0,0,1005.4,1019.6
2020-10-26T04:10:00+09:00,0.3,�k�k��,0.8,��,8.2,94.9,0,0,0,0,0,0,1005.4,1019.6
2020-10-26T04:11:00+09:00,0.3,�k�k��,1.1,�k��,8.2,94.7,0,0,0,0,0,0,1005.4,1019.6
2020-10-26T04:12:00+09:00,0.4,�k�k��,1.3,�k��,8.1,94.5,0,0,0,0,0,0,1005.4,1019.6
2020-10-26T04:13:00+09:00,0.4,�k�k��,1.5,�k��,8.1,94,0,0,0,0,0,0,1005.4,1019.6
2020-10-26T04:14:00+09:00,0.5,�k�k��,1.5,�k��,8.2,94,0,0,0,0,0,0,1005.4,1019.6
2020-10-26T04:15:00+09:00,0.5,�k,1.5,�k��,8,93.8,0,0,0,0,0,0,1005.4,1019.6
2020-10-26T04:16:00+09:00,0.5,�k�k��,1.5,�k��,8,93.4,0,0,0,0,0,0,1005.4,1019.6
2020-10-26T04:17:00+09:00,0.6,�k�k��,1.5,�k��,7.9,93.1,0,0,0,0,0,0,1005.3,1019.5
2020-10-26T04:18:00+09:00,0.6,�k�k��,1.5,�k��,7.7,92.5,0,0,0,0,0,0,1005.4,1019.7
2020-10-26T04:19:00+09:00,0.7,�k�k��,1.5,�k��,7.7,92.1,0,0,0,0,0,0,1005.4,1019.7
2020-10-26T04:20:00+09:00,0.7,�k�k��,1.5,�k��,7.7,92.3,0,0,0,0,0,0,1005.4,1019.7
2020-10-26T04:21:00+09:00,0.8,�k,1.5,�k��,7.7,92.6,0,0,0,0,0,0,1005.4,1019.7
2020-10-26T04:22:00+09:00,0.9,�k,2,�k�k��,7.7,92.9,0,0,0,0,0,0,1005.4,1019.7
2020-10-26T04:23:00+09:00,0.9,�k,2,�k�k��,7.8,93.3,0,0,0,0,0,0,1005.4,1019.7
2020-10-26T04:24:00+09:00,1,�k�k��,2,�k�k��,7.8,93.4,0,0,0,0,0,0,1005.4,1019.7
2020-10-26T04:25:00+09:00,1,�k�k��,2,�k�k��,7.8,93.6,0,0,0,0,0,0,1005.4,1019.7
2020-10-26T04:26:00+09:00,1.1,�k�k��,2,�k�k��,7.8,93.5,0,0,0,0,0,0,1005.4,1019.7
2020-10-26T04:27:00+09:00,1.1,�k�k��,2,�k�k��,7.9,93.6,0,0,0,0,0,0,1005.4,1019.6
2020-10-26T04:28:00+09:00,1.2,�k�k��,2,�k�k��,8,93.9,0,0,0,0,0,0,1005.4,1019.6
2020-10-26T04:29:00+09:00,1.3,�k�k��,2,�k�k��,7.9,93.8,0,0,0,0,0,0,1005.4,1019.6
2020-10-26T04:30:00+09:00,1.4,�k�k��,2,�k�k��,8.1,94.1,0,0,0,0,0,0,1005.4,1019.6
2020-10-26T04:31:00+09:00,1.4,�k�k��,2,�k�k��,8.1,94.2,0,0,0,0,0,0,1005.5,1019.7
2020-10-26T04:32:00+09:00,1.4,�k�k��,2,�k�k��,7.9,93.7,0,0,0,0,0,0,1005.5,1019.7
2020-10-26T04:33:00+09:00,1.3,�k�k��,2,�k�k��,8.1,93.6,0,0,0,0,0,0,1005.5,1019.7
2020-10-26T04:34:00+09:00,1.3,�k�k��,2,�k�k��,8,94,0,0,0,0,0,0,1005.5,1019.7
2020-10-26T04:35:00+09:00,1.3,�k�k��,2,�k�k��,7.9,93.4,0,0,0,0,0,0,1005.5,1019.7
2020-10-26T04:36:00+09:00,1.3,�k�k��,2,�k�k��,7.9,93.2,0,0,0,0,0,0,1005.5,1019.7
2020-10-26T04:37:00+09:00,1.3,�k�k��,2,�k�k��,7.9,93.3,0,0,0,0,0,0,1005.5,1019.7
2020-10-26T04:38:00+09:00,1.3,�k�k��,2,�k�k��,8,93.5,0,0,0,0,0,0,1005.5,1019.7
2020-10-26T04:39:00+09:00,1.2,�k�k��,2,�k�k��,7.9,93.5,0,0,0,0,0,0,1005.5,1019.7
2020-10-26T04:40:00+09:00,1.2,�k��,2,�k�k��,7.9,93.4,0,0,0,0,0,0,1005.5,1019.7
2020-10-26T04:41:00+09:00,1.2,�k��,1.8,�k�k��,7.9,93.6,0,0,0,0,0,0,1005.5,1019.7
2020-10-26T04:42:00+09:00,1.2,�k��,1.7,�k��,8.2,94.2,0,0,0,0,0,0,1005.5,1019.7
2020-10-26T04:43:00+09:00,1.2,�k��,1.7,�k��,8.1,94.3,0,0,0,0,0,0,1005.5,1019.7
2020-10-26T04:44:00+09:00,1.2,�k��,2,�k�k��,8,93.6,0,0,0,0,0,0,1005.5,1019.7
2020-10-26T04:45:00+09:00,1.3,�k�k��,2,�k�k��,8.1,93.8,0,0,0,0,0,0,1005.5,1019.7
2020-10-26T04:46:00+09:00,1.3,�k�k��,2.4,�k�k��,8,93.5,0,0,0,0,0,0,1005.6,1019.8
2020-10-26T04:47:00+09:00,1.4,�k�k��,2.4,�k�k��,8,93.2,0,0,0,0,0,0,1005.6,1019.8
2020-10-26T04:48:00+09:00,1.3,�k�k��,2.4,�k�k��,8,93.1,0,0,0,0,0,0,1005.6,1019.8
2020-10-26T04:49:00+09:00,1.3,�k�k��,2.4,�k�k��,8,93.2,0,0,0,0,0,0,1005.5,1019.7
2020-10-26T04:50:00+09:00,1.3,�k�k��,2.4,�k�k��,8,93.1,0,0,0,0,0,0,1005.5,1019.7
2020-10-26T04:51:00+09:00,1.2,�k,2.4,�k�k��,7.9,92.7,0,0,0,0,0,0,1005.6,1019.8
2020-10-26T04:52:00+09:00,1.1,�k,2.4,�k�k��,7.7,92,0,0,0,0,0,0,1005.6,1019.9
2020-10-26T04:53:00+09:00,1.1,�k,2.4,�k�k��,7.5,91.7,0,0,0,0,0,0,1005.6,1019.9
2020-10-26T04:54:00+09:00,1,�k,2.4,�k�k��,7.7,92.2,0,0,0,0,0,0,1005.6,1019.9
2020-10-26T04:55:00+09:00,0.9,�k�k��,2.4,�k�k��,7.7,92.6,0,0,0,0,0,0,1005.6,1019.9
2020-10-26T04:56:00+09:00,0.8,�k�k��,2.2,�k�k��,7.7,92.8,0,0,0,0,0,0,1005.6,1019.9
2020-10-26T04:57:00+09:00,0.8,�k�k��,1.7,�k,7.9,93.3,0,0,0,0,0,0,1005.6,1019.8
2020-10-26T04:58:00+09:00,0.7,�k�k��,1.7,�k,7.8,93,0,0,0,0,0,0,1005.6,1019.9
2020-10-26T04:59:00+09:00,0.7,�k�k��,1.3,�k��,7.6,92.5,0,0,0,0,0,0,1005.6,1019.9
2020-10-26T05:00:00+09:00,0.7,�k��,1.3,�k��,7.7,92.6,0,0,0,0,0,0,1005.7,1020
2020-10-26T05:01:00+09:00,0.8,�k��,1.4,�k��,7.7,92.7,0,0,0,0,0,0,1005.7,1020
2020-10-26T05:02:00+09:00,0.8,�k��,1.4,�k��,7.6,92.6,0,0,0,0,0,0,1005.6,1019.9
2020-10-26T05:03:00+09:00,0.8,�k��,1.4,�k��,7.8,92.8,0,0,0,0,0,0,1005.7,1020
2020-10-26T05:04:00+09:00,0.8,�k��,1.4,�k��,7.8,93.1,0,0,0,0,0,0,1005.7,1020